Temp
77 77 80 80 80 80 80 80 80 80 79 79 79 79 79 79 80 80 80 80 81 82 82 82 82 82 82 82 81 80 80 80 80 80 80 80 80 80 80 80 80 79 78
79 77 80 80 80 80 80 80 80 80 79 79 79 79 79 79 80 80 80 80 81 82 82 82 82 82 82 82 81 81 81 80 80 80 80 80 80 80 80 80 81 78 78
79 78 80 80 80 80 80 80 80 79 79 79 79 79 79 79 80 80 80 80 81 82 82 82 82 82 82 82 81 81 80 80 80 80 81 78 79 80 80 80 80 79 78
82 77 76 79 80 80 79 79 79 79 79 79 80 80 79 80 80 80 80 80 81 82 82 82 82 81 81 81 81 81 80 80 80 80 78 80 82 82 81 81 80 79 78
79 77 78 79 79 80 80 79 79 79 80 80 80 80 80 80 80 80 80 80 81 81 82 82 81 81 80 80 80 80 80 80 80 80 76 77 78 85 80 80 80 79 78
78 76 78 79 79 79 79 79 79 79 80 80 80 80 80 80 80 79 80 80 80 80 81 81 80 80 80 80 79 79 79 79 80 75 76 79 80 82 80 80 80 79 78
78 77 77 79 79 80 80 79 79 79 79 79 80 80 80 80 80 79 79 79 80 80 80 80 80 79 79 79 79 79 78 79 77 72 75 78 78 79 80 80 80 79 78
80 77 78 79 79 79 79 79 79 79 79 79 79 80 80 79 79 79 79 79 79 79 79 79 79 79 78 78 78 78 78 79 81 75 76 77 79 80 80 80 79 79 78
83 78 76 76 78 79 78 78 78 78 79 79 79 79 79 79 79 79 79 79 79 79 79 79 79 78 78 78 78 78 78 79 77 75 79 79 80 81 81 80 79 79 79
82 81 77 75 76 75 75 78 78 78 79 79 79 80 79 79 79 79 79 78 79 79 79 79 78 78 78 77 77 77 78 79 77 75 76 78 80 82 82 80 79 79 79
84 79 78 78 77 75 74 78 78 80 80 79 78 79 76 74 76 78 79 80 81 79 79 79 78 78 78 78 77 78 78 77 76 77 78 79 80 82 83 80 79 79 79
80 79 77 77 78 77 85 74 72 76 73 73 75 74 72 73 74 79 78 81 81 80 80 79 79 79 78 74 75 78 73 75 76 78 77 81 81 82 83 82 80 79 79
79 80 77 75 75 76 76 72 71 71 71 72 74 72 70 73 71 71 70 71 70 78 73 75 74 73 72 72 73 73 76 78 74 77 80 80 81 82 84 83 81 80 79
80 77 77 76 74 73 73 72 72 73 71 69 72 73 70 69 69 69 69 70 69 70 71 70 69 71 72 72 75 77 74 78 78 81 81 81 81 81 84 84 82 81 79
79 76 75 76 73 73 73 72 72 73 73 72 72 73 71 70 69 69 69 69 69 69 69 69 68 69 69 70 72 72 76 77 76 77 77 80 80 81 82 82 82 81 80
77 75 75 76 73 74 73 73 72 72 73 72 71 72 73 71 69 70 69 70 69 69 69 69 69 68 67 72 73 71 71 74 75 73 74 75 78 79 81 81 82 81 81
75 75 74 75 75 74 73 74 72 72 75 72 73 74 75 72 71 70 69 68 69 69 69 68 67 67 71 68 68 74 75 70 70 72 75 77 77 79 80 81 81 82 81
75 75 75 84 76 73 72 73 73 73 72 73 73 72 75 75 73 70 68 68 69 68 67 66 67 65 64 64 65 68 71 73 73 73 73 74 75 77 79 80 81 81 81
75 75 76 75 74 73 72 71 71 73 71 71 71 71 74 75 75 68 67 67 67 66 64 64 62 61 62 63 65 67 68 69 69 72 71 72 73 75 76 78 79 79 79
75 75 74 74 73 73 72 72 71 70 70 70 69 70 71 70 70 66 65 64 64 62 61 60 58 59 59 60 63 64 64 66 67 67 69 72 72 73 75 76 76 78 79
75 74 75 74 74 71 69 68 67 66 67 69 69 69 67 66 66 62 61 60 60 58 57 57 55 54 55 57 57 58 60 62 63 65 68 66 68 71 73 74 74 74 71
75 74 72 72 68 67 66 66 65 64 66 65 64 65 65 65 63 66 59 57 56 56 55 54 53 52 52 53 51 52 49 54 59 62 61 64 64 66 68 70 73 75 70
72 70 69 68 67 66 65 65 63 63 62 61 63 61 62 63 63 59 58 55 54 53 52 51 51 50 50 51 51 51 48 48 52 57 59 60 61 62 64 68 70 71 73
69 69 68 67 65 66 63 61 58 56 54 55 56 59 58 59 59 60 57 55 52 51 50 51 55 52 53 50 53 54 54 53 48 47 55 57 59 60 61 62 64 68 71
69 68 67 65 64 62 61 59 57 54 54 55 55 54 54 56 56 57 55 53 51 51 51 53 54 53 53 51 50 51 51 52 53 49 46 51 55 57 59 60 63 66 67
70 68 64 62 60 60 59 58 56 53 53 52 52 51 52 54 54 55 56 55 56 55 54 54 53 53 52 52 52 51 49 47 48 48 47 49 49 53 55 58 60 65 65
MSLP
1014.15 1014.05 1013.83 1013.83 1014.02 1014.15 1014.35 1014.48 1014.65 1014.73 1014.96 1015.11 1015.25 1015.52 1015.58 1015.70 1015.77 1015.89 1016.03 1016.15 1016.27 1016.35 1016.39 1016.41 1016.42 1016.44 1016.46 1016.46 1016.43 1016.50 1016.59 1016.58 1016.55 1016.56 1016.60 1016.69 1016.81 1016.89 1016.80 1016.64 1016.83 1017.06 1017.19
1013.92 1014.16 1013.85 1014.08 1014.36 1014.38 1014.46 1014.62 1014.76 1014.95 1015.07 1015.24 1015.41 1015.75 1015.89 1015.95 1016.07 1016.09 1016.19 1016.30 1016.35 1016.36 1016.43 1016.50 1016.53 1016.56 1016.51 1016.47 1016.54 1016.56 1016.58 1016.63 1016.64 1016.62 1016.64 1016.67 1016.71 1016.79 1016.89 1016.79 1016.29 1016.97 1017.19
1013.77 1013.85 1013.91 1014.29 1014.43 1014.58 1014.69 1014.81 1014.94 1015.11 1015.26 1015.47 1015.47 1015.77 1016.00 1016.19 1016.29 1016.35 1016.40 1016.45 1016.44 1016.51 1016.53 1016.57 1016.59 1016.61 1016.61 1016.57 1016.53 1016.48 1016.53 1016.62 1016.58 1016.50 1016.45 1016.49 1016.62 1016.61 1016.64 1016.78 1016.67 1016.42 1016.94
1013.33 1013.74 1014.10 1014.35 1014.47 1014.70 1014.83 1015.01 1015.16 1015.32 1015.45 1015.63 1015.70 1015.91 1016.01 1016.14 1016.27 1016.32 1016.42 1016.52 1016.53 1016.53 1016.52 1016.55 1016.58 1016.60 1016.61 1016.59 1016.56 1016.50 1016.43 1016.39 1016.40 1016.33 1016.24 1016.14 1016.13 1016.11 1016.38 1016.43 1016.59 1016.34 1016.40
1013.54 1013.93 1014.24 1014.42 1014.68 1014.94 1014.98 1015.12 1015.25 1015.46 1015.61 1015.69 1015.78 1015.99 1016.10 1016.17 1016.27 1016.42 1016.48 1016.50 1016.53 1016.48 1016.46 1016.47 1016.49 1016.50 1016.48 1016.44 1016.40 1016.39 1016.36 1016.29 1016.20 1016.08 1015.94 1015.60 1015.62 1015.12 1015.58 1015.76 1015.95 1016.12 1015.98
1013.81 1014.12 1014.32 1014.58 1014.77 1015.00 1015.19 1015.32 1015.36 1015.63 1015.72 1015.85 1015.92 1016.10 1016.19 1016.20 1016.32 1016.38 1016.44 1016.47 1016.51 1016.52 1016.46 1016.44 1016.45 1016.42 1016.36 1016.31 1016.24 1016.19 1016.13 1016.08 1015.98 1015.90 1015.70 1015.21 1015.02 1014.91 1015.04 1015.18 1015.51 1015.58 1015.50
1014.03 1014.27 1014.51 1014.74 1014.94 1015.13 1015.32 1015.53 1015.58 1015.76 1015.89 1015.97 1016.07 1016.07 1016.11 1016.13 1016.12 1016.15 1016.23 1016.32 1016.24 1016.29 1016.28 1016.28 1016.22 1016.09 1016.01 1016.01 1015.99 1015.91 1015.81 1015.72 1015.69 1015.69 1015.44 1015.09 1014.72 1014.70 1014.87 1014.91 1015.10 1015.14 1014.96
1013.75 1014.27 1014.42 1014.75 1014.97 1015.25 1015.44 1015.70 1015.80 1015.85 1016.00 1016.09 1016.11 1016.13 1016.17 1016.10 1016.08 1016.14 1016.17 1016.31 1016.37 1016.21 1016.15 1016.04 1015.92 1015.83 1015.79 1015.75 1015.66 1015.57 1015.48 1015.45 1015.18 1015.12 1014.94 1014.71 1014.26 1014.21 1014.25 1014.38 1014.68 1014.74 1014.60
1013.46 1014.16 1014.76 1015.01 1015.17 1015.36 1015.60 1015.73 1015.84 1015.96 1016.13 1016.19 1016.22 1016.17 1016.15 1016.13 1016.07 1016.06 1016.20 1016.32 1016.16 1015.99 1015.87 1015.82 1015.68 1015.45 1015.58 1015.47 1015.42 1015.31 1015.10 1014.96 1015.02 1014.91 1014.63 1014.23 1013.81 1013.49 1013.66 1013.93 1013.94 1013.96 1013.96
1013.71 1014.07 1014.83 1015.17 1015.32 1015.49 1015.60 1015.71 1015.91 1016.00 1016.15 1016.25 1016.21 1016.14 1016.05 1015.97 1015.85 1015.89 1015.95 1015.97 1015.85 1015.74 1015.76 1015.62 1015.44 1015.40 1015.28 1015.12 1015.07 1015.06 1014.91 1014.78 1014.62 1014.55 1014.30 1013.86 1013.43 1013.27 1013.15 1013.08 1013.45 1013.68 1013.67
1013.56 1014.11 1014.59 1014.89 1015.25 1015.33 1015.50 1015.63 1015.85 1015.92 1016.07 1016.20 1016.18 1016.08 1016.03 1016.06 1015.82 1015.84 1016.00 1015.81 1015.73 1015.76 1015.55 1015.47 1015.36 1015.13 1014.98 1015.04 1014.87 1014.60 1014.31 1014.25 1014.04 1013.84 1013.52 1013.03 1012.88 1012.66 1012.67 1012.88 1012.95 1012.83 1012.89
1013.58 1014.29 1014.63 1014.86 1014.97 1015.08 1015.03 1015.65 1015.98 1016.10 1016.22 1016.23 1016.17 1016.21 1016.26 1016.17 1016.03 1015.91 1015.91 1015.79 1015.80 1015.66 1015.51 1015.42 1015.25 1015.00 1014.98 1014.92 1014.64 1014.30 1014.06 1013.80 1013.59 1013.21 1012.89 1012.31 1012.05 1011.88 1011.80 1011.88 1012.06 1012.22 1012.24
1013.28 1013.86 1014.60 1014.91 1015.03 1015.16 1015.35 1015.73 1015.96 1016.06 1016.23 1016.20 1016.20 1016.29 1016.48 1016.51 1016.38 1016.41 1016.33 1016.14 1016.07 1015.64 1015.61 1015.47 1015.28 1015.07 1014.94 1014.85 1014.58 1014.28 1013.86 1013.50 1013.27 1012.97 1012.46 1012.00 1011.56 1011.09 1010.84 1010.59 1010.71 1010.98 1011.29
1013.35 1014.21 1014.81 1015.00 1015.12 1015.36 1015.53 1015.88 1015.98 1016.05 1016.26 1016.37 1016.32 1016.27 1016.42 1016.60 1016.60 1016.54 1016.53 1016.28 1016.12 1015.77 1015.58 1015.40 1015.31 1015.04 1014.73 1014.60 1014.26 1013.83 1013.52 1013.13 1012.90 1012.51 1012.10 1011.62 1011.21 1011.00 1010.49 1009.83 1009.81 1010.08 1010.61
1013.44 1014.33 1014.93 1015.18 1015.48 1015.51 1015.62 1015.80 1015.94 1015.96 1016.02 1016.31 1016.31 1016.08 1016.04 1016.19 1016.36 1016.19 1016.17 1016.06 1015.94 1015.64 1015.52 1015.32 1015.08 1014.84 1014.52 1014.38 1014.07 1013.75 1013.20 1012.78 1012.50 1012.07 1011.64 1011.21 1010.82 1010.43 1009.92 1009.72 1009.16 1009.32 1009.31
1013.70 1014.56 1014.88 1015.23 1015.30 1015.42 1015.86 1015.76 1015.88 1015.96 1015.92 1016.01 1016.18 1015.83 1015.62 1015.63 1015.81 1015.77 1015.82 1015.68 1015.60 1015.28 1015.15 1014.94 1014.81 1014.71 1014.47 1013.95 1013.74 1013.22 1013.00 1012.55 1012.12 1011.79 1011.39 1010.93 1010.43 1010.13 1009.75 1009.24 1009.02 1008.74 1008.43
1013.96 1014.26 1014.76 1015.07 1015.19 1015.50 1015.67 1015.59 1015.77 1015.88 1015.73 1015.70 1015.65 1015.48 1015.38 1015.37 1015.36 1015.38 1015.46 1015.44 1015.13 1014.80 1014.66 1014.56 1014.45 1014.25 1014.09 1013.77 1013.45 1013.16 1012.56 1012.30 1011.84 1011.42 1011.15 1010.71 1010.14 1009.52 1009.15 1008.88 1008.47 1008.17 1008.05
1014.06 1014.45 1014.80 1014.98 1015.15 1015.38 1015.63 1015.57 1015.61 1015.62 1015.63 1015.48 1015.44 1015.36 1015.29 1015.17 1015.14 1015.25 1015.43 1015.25 1014.78 1014.70 1014.56 1014.55 1014.41 1014.39 1014.22 1013.91 1013.59 1013.07 1012.51 1012.06 1011.50 1011.04 1010.68 1010.44 1009.88 1009.19 1008.53 1007.89 1007.56 1007.34 1007.38
1013.93 1014.25 1014.60 1014.89 1015.17 1015.47 1015.62 1015.67 1015.63 1015.56 1015.59 1015.62 1015.56 1015.55 1015.41 1015.28 1015.31 1015.52 1015.51 1015.41 1015.20 1015.04 1015.02 1014.91 1014.81 1014.64 1014.36 1014.01 1013.51 1012.84 1012.31 1011.74 1011.23 1010.62 1010.23 1009.77 1009.31 1008.85 1008.24 1007.55 1007.03 1006.77 1006.58
1013.39 1013.97 1014.45 1014.89 1015.25 1015.52 1015.56 1015.58 1015.81 1015.93 1016.00 1015.89 1015.79 1015.83 1015.64 1015.78 1015.91 1015.88 1015.77 1015.66 1015.38 1015.30 1015.14 1015.01 1014.90 1014.74 1014.49 1014.08 1013.46 1012.75 1012.06 1011.48 1010.98 1010.48 1009.76 1009.01 1008.44 1008.08 1007.55 1007.05 1006.78 1006.33 1006.03
1012.60 1013.30 1013.50 1014.10 1014.67 1015.31 1015.87 1016.29 1016.36 1016.64 1016.33 1016.09 1016.13 1016.20 1016.40 1016.41 1016.30 1016.20 1016.02 1015.74 1015.51 1015.57 1015.55 1015.46 1015.32 1015.13 1014.78 1014.39 1013.66 1012.57 1011.75 1011.15 1010.61 1010.01 1009.46 1009.06 1008.52 1008.04 1007.24 1006.61 1006.11 1005.72 1005.36
1011.87 1012.57 1013.60 1014.30 1015.17 1015.67 1016.11 1016.61 1016.92 1016.94 1016.76 1016.86 1016.84 1016.67 1016.68 1016.57 1016.44 1016.18 1016.23 1016.18 1016.02 1015.86 1015.74 1015.64 1015.49 1015.23 1014.92 1014.59 1014.32 1013.43 1011.14 1010.37 1010.07 1009.60 1009.49 1009.01 1008.71 1008.31 1007.58 1007.13 1006.31 1005.34 1004.78
1012.23 1013.44 1014.44 1015.26 1015.81 1016.00 1016.49 1016.96 1017.05 1017.09 1017.21 1017.37 1017.40 1017.36 1017.21 1016.94 1016.69 1016.65 1016.38 1016.42 1016.37 1016.20 1016.05 1015.91 1015.74 1015.51 1014.83 1014.51 1014.40 1014.29 1012.37 1010.74 1010.31 1009.90 1009.25 1008.82 1008.38 1008.05 1007.59 1006.89 1006.15 1005.53 1004.48
1013.59 1014.34 1015.18 1015.93 1016.42 1017.04 1017.08 1017.67 1018.19 1018.59 1018.72 1018.53 1018.23 1017.93 1017.55 1017.30 1017.23 1016.87 1016.74 1016.61 1016.56 1016.31 1016.03 1015.80 1015.52 1015.19 1014.63 1014.01 1013.77 1013.49 1013.08 1012.18 1010.97 1009.29 1008.98 1008.57 1008.28 1007.95 1007.75 1007.28 1006.53 1005.53 1004.33
1013.87 1014.81 1015.58 1016.33 1016.95 1017.56 1017.73 1018.30 1018.61 1018.98 1019.02 1018.69 1018.42 1018.20 1018.21 1017.94 1017.70 1017.33 1017.00 1016.77 1016.59 1016.19 1015.84 1015.48 1015.07 1014.74 1014.36 1013.84 1013.42 1012.86 1012.28 1011.83 1011.34 1010.45 1009.06 1008.06 1008.14 1008.20 1008.01 1007.63 1006.98 1005.75 1004.45
1014.37 1015.37 1016.24 1016.83 1017.60 1018.00 1018.29 1018.71 1018.97 1019.21 1019.15 1018.96 1018.92 1018.90 1018.67 1018.28 1017.82 1017.34 1016.91 1016.55 1016.05 1015.79 1015.44 1015.05 1014.64 1014.24 1013.83 1013.32 1012.81 1012.41 1012.04 1011.56 1010.80 1010.46 1009.70 1008.58 1008.23 1007.83 1007.93 1007.57 1006.82 1005.77 1004.57
Wind_Speed
5 5 12 14 13 12 11 11 10 10 10 9 10 9 9 8 9 9 9 8 8 8 8 7 7 7 7 7 7 7 6 6 6 6 7 6 6 6 8 10 9 8 9
10 6 14 13 12 12 11 10 10 9 9 9 9 8 7 7 7 7 7 6 5 5 6 5 5 5 5 4 4 4 3 2 1 1 3 5 7 7 7 6 12 10 10
12 9 12 13 12 12 11 10 10 10 9 8 9 8 6 5 5 5 5 4 4 4 5 5 5 4 4 3 2 1 0 2 3 4 6 4 6 11 10 8 11 16 12
13 10 8 11 12 12 11 10 10 10 9 8 8 7 6 5 4 4 3 3 3 4 4 4 5 5 5 5 4 4 3 4 5 8 5 7 9 15 15 13 12 15 15
13 10 9 12 12 11 11 10 10 9 8 8 8 6 5 4 3 2 2 2 2 2 3 4 4 4 4 5 5 5 6 6 8 8 6 8 5 9 20 18 17 16 17
12 9 10 11 11 11 10 10 10 9 8 8 7 6 5 5 3 1 1 2 4 5 5 6 5 6 6 7 7 8 8 9 10 6 7 10 8 12 20 20 19 18 17
11 8 7 11 10 10 10 9 9 8 7 7 5 5 3 2 3 3 4 5 5 6 7 7 7 8 8 8 9 10 11 12 8 6 7 8 8 12 20 20 20 19 19
13 9 7 10 10 10 10 8 8 7 6 5 3 1 2 4 4 6 6 7 6 7 8 9 9 10 10 10 12 13 13 15 11 6 8 8 11 10 20 22 21 21 20
13 9 6 6 9 10 9 8 7 6 5 3 1 2 4 5 7 7 6 8 9 9 10 10 11 13 11 13 14 15 16 18 11 7 11 8 13 13 18 23 23 22 21
11 11 9 7 6 7 6 9 8 7 5 3 1 5 8 8 10 7 9 9 11 11 11 12 13 13 13 14 15 17 18 20 12 9 9 10 18 19 15 23 22 20 20
12 12 10 9 8 7 7 7 7 7 7 4 2 7 6 5 6 2 6 10 9 10 12 12 13 15 14 13 15 17 21 8 9 8 8 19 20 22 21 20 22 23 23
8 9 6 5 8 7 7 6 5 5 3 4 4 5 5 5 5 7 8 8 7 9 12 10 12 10 7 4 4 9 4 7 7 9 7 20 21 23 25 21 24 24 23
9 8 8 7 7 5 5 4 3 3 3 3 5 3 5 4 5 5 4 4 5 7 4 4 4 2 3 4 4 5 6 6 3 6 10 21 23 24 26 22 27 26 26
13 10 8 7 8 7 5 4 4 4 3 2 3 4 4 2 2 3 2 4 4 3 5 3 2 5 6 7 9 11 8 8 6 6 8 16 17 16 23 23 24 24 23
14 10 8 7 7 6 7 3 3 2 2 4 4 4 4 4 3 1 2 3 4 4 4 3 4 5 5 6 6 7 11 11 11 7 6 16 18 19 17 20 21 25 29
13 11 8 7 7 7 4 3 1 1 1 2 4 4 6 5 4 4 4 4 5 3 4 3 4 5 4 7 12 7 7 9 11 7 5 10 20 19 20 20 23 25 25
10 10 10 8 8 8 7 4 1 2 2 1 3 4 5 6 6 5 5 5 5 4 5 4 4 4 8 6 7 12 12 8 6 9 11 12 15 22 22 21 25 26 26
9 9 8 7 8 6 5 4 2 3 3 4 4 4 6 5 4 4 3 4 5 3 3 4 5 5 4 5 6 8 12 14 15 13 11 11 11 11 15 21 19 25 28
9 8 5 7 7 5 3 1 3 4 4 4 3 3 3 5 8 6 5 5 6 4 4 4 3 3 6 7 10 11 11 11 12 12 14 12 15 14 11 17 20 17 22
10 9 6 5 7 5 2 3 4 4 3 3 2 4 8 8 10 7 5 7 5 4 4 4 4 3 5 7 8 10 9 10 10 11 13 14 14 15 15 16 13 13 19
12 12 11 9 5 3 4 3 3 4 3 5 7 9 9 7 7 6 4 4 5 5 5 6 4 4 4 6 9 9 10 11 13 8 10 9 11 12 14 13 11 9 8
13 10 8 8 10 7 4 3 4 2 3 3 4 6 9 10 8 10 6 5 5 5 6 5 5 5 3 4 6 11 9 7 8 10 9 10 13 11 12 15 15 14 11
9 9 11 11 11 9 8 6 4 4 4 5 7 5 7 8 9 7 7 6 6 5 4 4 5 6 8 5 5 6 6 5 12 10 12 11 13 10 12 14 12 15 15
15 15 15 12 10 9 9 7 8 4 3 3 3 6 6 8 10 10 7 7 6 4 5 5 8 8 8 9 6 6 10 11 7 9 7 8 11 9 12 11 13 16 16
16 14 12 11 10 8 8 7 5 4 3 3 4 6 7 8 9 10 8 6 6 4 6 9 10 10 9 9 8 8 9 9 11 9 12 10 9 9 8 10 12 13 16
14 12 10 11 8 8 8 8 7 6 6 5 7 7 7 8 7 9 9 11 10 10 10 10 11 11 11 11 10 10 9 8 7 7 7 14 15 10 7 9 8 11 9
Wind_Direction
93 115 98 91 89 90 93 99 101 106 107 98 92 86 79 75 76 80 81 82 79 76 72 71 67 64 62 64 68 67 71 83 99 111 122 130 135 147 155 146 145 122 128
123 128 97 90 90 94 96 98 99 98 104 104 98 94 91 93 90 88 91 92 89 77 60 51 50 47 50 71 71 68 77 85 87 156 176 179 181 187 192 182 152 141 137
130 115 97 102 99 95 92 94 94 99 104 107 110 109 104 95 90 86 79 75 58 35 30 25 23 23 20 14 17 99 228 287 277 268 256 232 212 209 194 185 151 146 150
116 97 99 102 98 97 96 92 92 96 98 101 101 108 116 118 107 92 82 63 37 20 14 11 7 1 351 341 331 320 296 273 269 273 263 248 233 211 200 190 183 162 158
97 99 102 99 97 95 95 95 96 95 98 102 102 106 111 109 99 73 56 35 358 345 335 332 333 320 307 300 296 290 281 275 274 275 269 264 231 251 189 192 190 181 166
102 102 107 107 107 106 102 100 99 97 97 94 96 100 104 102 94 87 323 325 321 311 306 300 299 293 286 281 279 276 270 266 271 265 267 274 277 193 195 190 194 190 176
109 114 108 115 112 109 104 100 98 96 93 95 96 102 109 134 190 224 238 248 246 262 271 280 279 274 270 269 266 263 262 264 267 261 263 272 277 194 204 197 200 196 181
118 128 128 123 116 108 104 101 98 101 102 98 100 123 240 241 254 255 253 265 270 264 271 268 268 269 268 265 263 261 259 262 264 251 251 256 262 234 203 199 203 203 190
133 127 120 114 119 116 116 118 124 124 125 121 94 288 298 291 277 271 279 271 267 264 262 268 266 263 267 265 268 265 259 258 262 255 263 259 256 255 208 206 206 201 194
137 134 134 136 146 140 146 146 154 145 136 120 322 310 303 290 278 267 267 269 261 259 267 266 269 273 271 268 269 272 271 268 262 255 253 255 256 261 234 205 208 206 202
149 144 149 159 163 165 149 168 166 158 153 142 294 333 17 15 17 260 278 259 272 263 266 271 278 275 269 278 277 273 269 261 253 249 250 258 256 251 250 216 212 208 206
113 99 127 161 176 174 153 148 160 170 159 135 59 16 22 28 27 24 14 30 335 289 280 277 289 305 304 280 285 302 319 268 257 251 249 255 251 248 245 220 215 214 210
112 89 77 76 100 120 117 151 176 148 135 130 104 72 45 39 24 19 2 354 341 346 345 354 354 353 312 299 301 292 298 303 283 267 266 263 260 251 242 223 217 213 212
108 102 91 75 68 71 93 90 75 111 151 161 139 122 95 90 38 10 347 327 323 320 319 334 341 326 330 309 315 309 300 307 293 286 277 287 296 286 263 237 221 217 216
116 115 112 98 83 77 67 71 77 69 85 130 168 176 154 147 174 204 266 299 296 314 303 315 314 303 302 289 285 279 293 288 292 294 290 283 285 292 287 255 219 210 215
123 130 135 134 128 115 115 111 61 29 55 85 194 224 180 180 189 207 226 254 268 270 264 270 276 285 281 298 289 277 277 289 282 282 301 310 304 304 295 264 246 227 220
140 141 146 161 156 149 163 167 168 267 187 236 277 281 223 206 215 221 232 240 257 256 279 301 306 295 298 282 292 290 293 285 294 298 296 294 293 291 283 280 253 241 235
131 138 157 164 158 158 151 179 200 253 253 243 264 277 293 293 269 267 268 269 286 305 293 286 300 323 312 319 304 297 297 289 291 297 295 289 286 286 289 280 264 253 245
147 148 162 136 173 171 138 165 245 273 276 307 310 318 358 4 18 18 356 344 347 345 348 344 338 333 325 313 301 295 286 284 292 295 289 286 289 284 283 285 286 275 258
154 159 157 135 119 130 94 348 334 335 1 338 352 31 34 30 27 17 4 356 348 336 331 337 320 316 297 306 317 303 293 285 289 283 277 274 270 269 271 272 273 278 275
159 162 164 144 157 84 44 29 10 358 347 354 28 11 43 21 11 0 342 329 326 338 330 360 352 338 316 321 311 297 284 291 281 286 308 327 323 319 293 273 271 266 268
166 159 133 113 90 82 78 43 54 357 5 45 4 11 19 3 358 343 343 356 8 347 346 351 342 315 298 335 314 306 301 302 269 279 312 308 305 309 312 318 314 288 270
137 104 93 87 78 70 61 46 17 17 16 12 359 349 352 345 342 2 356 11 8 11 352 340 334 326 309 302 283 281 309 293 321 289 288 293 301 313 305 299 330 323 301
90 88 84 83 77 65 59 51 53 44 355 327 314 326 330 356 2 357 13 8 356 342 334 318 313 300 297 299 297 269 269 281 295 305 292 298 297 303 331 336 329 317 322
102 101 98 90 77 63 57 57 58 30 352 308 317 335 20 353 353 335 350 344 331 313 306 305 308 303 293 287 282 289 288 282 275 275 289 293 301 304 318 312 314 313 307
104 97 88 87 71 53 55 48 46 21 344 353 3 8 352 337 329 330 332 322 316 314 312 305 297 291 286 279 273 271 275 279 285 286 287 289 296 301 311 306 306 300 352